Regional Weather Roundup
Issued by NWS Jackson, KY

Home | Current Version | Previous Version | Graphics & Text | Print | Product List | Glossary On
Versions: 1 2 3 4 5 6 7 8 9 10 11 12 13 14 15 16 17 18 19 20 21 22 23 24 25 26 27 28 29 30 31 32 33 34 35 36 37 38 39 40 41 42 43 44 45 46 47 48 49 50
406
ASUS43 KJKL 281410
RWRJKL

EAST KENTUCKY HOURLY WEATHER ROUNDUP
NATIONAL WEATHER SERVICE JACKSON KY
1000 AM EDT THU APR 28 2016

NOTE: "FAIR" INDICATES FEW OR NO CLOUDS BELOW 12,000 FEET WITH
NO SIGNIFICANT WEATHER AND/OR OBSTRUCTIONS TO VISIBILITY.

* THESE REPORTS ARE NOT UNDER NWS QUALITY CONTROL AND MAY NOT
  REPORT WEATHER SUCH AS PRECIPITATION AND FOG.

KYZ079-080-083-085-087-088-110-112-115-119-120-281500
...EASTERN KENTUCKY...

CITY           SKY/WX    TMP DP  RH WIND       PRES   REMARKS
JACKSON          N/A     63  60  90 VRB3      29.89S
LONDON         CLOUDY    67  62  84 SW7       29.90R
SOMERSET*      CLOUDY    64  64 100 S5        29.90S
MONTICELLO*    CLOUDY    69  65  86 W18       29.90F
WILLIAMSBURG*  PTSUNNY   61  61 100 SW6       29.90F
MIDDLESBORO*   CLOUDY    67  64  87 S6        29.92S
HARLAN APT*    CLOUDY    64  61  88 CALM      29.92S
HAZARD APT*    CLOUDY    64  64 100 S3        29.89F
BLACK MTN*       N/A     55  55 100 S5          N/A
PIKE CO APT*   PTSUNNY   62  62  99 S5        29.90S
BIG SANDY APT* CLOUDY    64  62  93 SW8       29.88S
MOREHEAD APT*    N/A     66  61  82 S8        29.87S
$$

KYZ035-036-041-042-044-050-067-078-099-281500
...CENTRAL KENTUCKY...

CITY           SKY/WX    TMP DP  RH WIND       PRES   REMARKS
MT STERLING*     N/A     64  61  88 SW7       29.87S
FLEMING/MASON* PTSUNNY   65  60  85 SW10      29.86R
DANVILLE*        N/A     66  63  88 SW12      29.87F
RICHMOND*      PTSUNNY   66  61  82 SW8       29.86F
LEXINGTON        N/A     68  62  81 S13       29.84S
FRANKFORT      PTSUNNY   68  62  81 SW10      29.82S
LOUISVILLE     PTSUNNY   68  62  81 SW10      29.82S
LEBANON*       CLOUDY    66  64  94 S9        29.86S
BOWLING GREEN  CLOUDY    70  66  87 SW9       29.86R
$$

KYZ091>093-OHZ055-061-077-WVZ005-015-034-035-042-281500
...SOUTHERN OHIO/WEST VIRGINIA...

CITY           SKY/WX    TMP DP  RH WIND       PRES   REMARKS
COVINGTON      CLOUDY    63  60  90 VRB3      29.83S
COLUMBUS       CLOUDY    50  43  77 E6        29.87S
DAYTON         LGT RAIN  50  46  86 NE5       29.88R
WILMINGTON     FOG       54  53  97 NE7       29.85R VSB 1/4
HUNTINGTON       N/A     66  61  84 SW7       29.85S
CHARLESTON       N/A     68  60  75 CALM      29.85S
PINEVILLE*       N/A     64  60  85 MISG      29.96S
BECKLEY          N/A     65  56  72 SW14G20   29.91F
$$

VAZ002-007-008-TNZ017-027-036-066-071-281500
...SOUTHWEST VIRGINIA/EAST TENNESSEE...

CITY           SKY/WX    TMP DP  RH WIND       PRES   REMARKS
WISE*          CLOUDY    64  61  88 SW7       29.97S
BRISTOL          N/A     66  61  84 VRB3      29.94F
MORRISTOWN*    CLOUDY    68  64  88 S6        29.93R
SEVIERVILLE*   PTSUNNY   68  64  88 CALM      29.91F
KNOXVILLE      PTSUNNY   70  64  81 SW17      29.91S
OAK RIDGE      CLOUDY    67  63  87 VRB5      29.94R
CROSSVILLE       N/A     68  60  75 SW8       29.95R
NASHVILLE      CLOUDY    70  63  78 SW5       29.89R
$$

...KEY TO REMARKS...
VSB - VISIBILITY IN MILES
WCI - WIND CHILL INDEX
HX  - HEAT INDEX

$$




USA.gov is the U.S. government's official web portal to all federal, state and local government web resources and services.